Skip Page Navigation
NASA JPL Caltech
NASA Logo - Jet Propulsion Laboratory + View the NASA Portal
+ Center for Near-Earth Object Studies
JPL Home Earth Solar System Stars & Galaxies Technology
JPL Solar System Dynamics
BODIES ORBITS EPHEMERIDES TOOLS PHYSICAL DATA DISCOVERY FAQ SITE MAP
JPL Small-Body Database Browser
Search: [ help ]  
72332 (2001 BC60)
Classification: Main-belt Asteroid          SPK-ID: 2072332
Ephemeris | Orbit Diagram | Orbital Elements | Mission Design | Physical Parameters | Discovery Circumstances | Close-Approach Data ]

[ show orbit diagram ]
Orbital Elements at Epoch 2459200.5 (2020-Dec-17.0) TDB
Reference: JPL 25 (heliocentric ecliptic J2000)
 Element Value Uncertainty (1-sigma)   Units 
e .1487217223848766 3.4147e-08  
a 2.432108889910151 8.4846e-09 au
q 2.070401466775143 8.0779e-08 au
i 2.322495049726248 4.3176e-06 deg
node 180.661073875774 8.3598e-05 deg
peri 280.1048570845034 8.5214e-05 deg
M 123.5482693083916 1.5362e-05 deg
tp 2458725.047522287820
(2019-Aug-29.54752229)
5.8365e-05 TDB
period 1385.392874659711
3.79
7.2495e-06
1.985e-08
d
yr
n .2598540865806209 1.3598e-09 deg/d
Q 2.793816313045159 9.7464e-09 au
  Orbit Determination Parameters
   # obs. used (total)      1011  
   data-arc span      8556 days (23.43 yr)  
   first obs. used      1996-12-17  
   last obs. used      2020-05-21  
   planetary ephem.      DE441  
   SB-pert. ephem.      SB441-N16  
   condition code      0  
   norm. resid. RMS      .48664  
   source      ORB  
   producer      Otto Matic  
   solution date      2021-Apr-13 13:01:29  

Additional Information
 Earth MOID = 1.08859 au 
 Jupiter MOID = 2.35118 au 
 T_jup = 3.490 
[ show covariance matrix ]

Ephemeris | Orbit Diagram | Orbital Elements | Mission Design | Physical Parameters | Discovery Circumstances | Close-Approach Data ]

Physical Parameter Table
Parameter Symbol Value Units Sigma Reference Notes
absolute magnitude H 15.77   n/a E2021B10  

72332 (2001 BC60)          Discovered 2001-Jan-26 by LINEAR at Socorro
Reference: 20031109/Numbers.arcLast Updated: 2004-04-19

[ show close-approach data ]
Alternate Designations
 2001 BC60 = 1999 RG76 
Ephemeris | Orbit Diagram | Orbital Elements | Mission Design | Physical Parameters | Discovery Circumstances | Close-Approach Data ]
ABOUT SSD CREDITS/AWARDS PRIVACY/COPYRIGHT GLOSSARY LINKS
FirstGov 2021-Jun-19 10:51 UT
(server date/time)  
NASA Home Page
Site Manager:   Ryan S. Park
Webmaster  Alan B. Chamberlin